Waarnemingen

Advertentie
Mijn weer
Palma De Mallorca/Son San Ju, Spanje (8306): temperatuur & dauwpunt: 10.01.2018 10:00:00 - 16.01.2018 10:00:00 (CET)Palma De Mallorca/Son San Ju, Spanje (8306): windsnelheid: 10.01.2018 10:00:00 - 16.01.2018 10:00:00 (CET)Palma De Mallorca/Son San Ju, Spanje (8306): windrichting: 10.01.2018 10:00:00 - 16.01.2018 10:00:00 (CET)Palma De Mallorca/Son San Ju, Spanje (8306): luchtdruk: 10.01.2018 10:00:00 - 16.01.2018 10:00:00 (CET)Palma De Mallorca/Son San Ju, Spanje (8306): zicht: 10.01.2018 10:00:00 - 16.01.2018 10:00:00 (CET)
Datum & Tijd tt [°C] td [°C] ff [km/u] ff [kn] dd ppp [hPa] vv [km]
16.01.2018 10:00:00 14,7 6,8 28 15 WZW 1024,2 10
16.01.2018 09:00:00 13,8 6,9 26 14 WZW 1023,8 10
16.01.2018 08:00:00 12,9 7,6 16 9 ZW 1023,6 10
16.01.2018 07:00:00 12,9 7,3 18 10 WZW 1023,5 10
16.01.2018 06:00:00 12,7 8,0 24 13 WZW 1023,8 10
16.01.2018 05:00:00 12,7 8,2 26 14 WZW 1024,3 10
16.01.2018 04:00:00 12,4 7,9 22 12 W 1024,9 10
16.01.2018 03:00:00 11,7 8,4 24 13 W 1025,0 10
16.01.2018 02:00:00 4,0 3,3 0 0 N 1025,5 10
16.01.2018 01:00:00 3,5 2,5 0 0 N 1026,0 10
16.01.2018 00:00:00 4,0 3,0 4 2 NO 1026,9 10
15.01.2018 23:00:00 4,2 2,7 4 2 NO 1026,9 10
15.01.2018 22:00:00 7,9 6,4 0 0 N 1026,6 10
15.01.2018 21:00:00 5,1 3,1 0 0 N 1026,2 10
15.01.2018 20:00:00 7,5 4,4 2 1 ZZO 1025,8 10
15.01.2018 19:00:00 9,8 5,0 0 0 N 1025,3 10
15.01.2018 18:00:00 10,9 4,6 8 4 NW 1025,1 10
15.01.2018 17:00:00 13,5 4,1 11 6 NNW 1024,6 10
15.01.2018 16:00:00 14,4 3,8 11 6 NW 1024,0 10
15.01.2018 15:00:00 14,6 5,1 15 8 NW 1023,7 10
15.01.2018 14:00:00 13,7 5,5 8 4 W 1024,2 10
15.01.2018 13:00:00 14,5 5,3 8 4 WZW 1024,8 10
15.01.2018 12:00:00 15,0 6,3 0 0 N 1025,2 10
15.01.2018 11:00:00 11,8 5,9 0 0 N 1025,3 10
15.01.2018 10:00:00 7,1 4,6 0 0 N 1024,7 10
15.01.2018 09:00:00 2,4 1,5 2 1 NO 1024,2 10
15.01.2018 08:00:00 1,4 0,7 2 1 O 1023,6 10
15.01.2018 07:00:00 1,6 0,9 2 1 - 1022,9 10
15.01.2018 06:00:00 1,5 0,8 4 2 - 1022,0 10
15.01.2018 05:00:00 2,4 1,8 0 0 N 1021,7 10
15.01.2018 04:00:00 1,9 1,0 4 2 NO 1021,5 10
15.01.2018 03:00:00 1,9 1,0 4 2 ONO 1021,6 10
15.01.2018 02:00:00 2,4 1,5 0 0 N 1021,3 10
15.01.2018 01:00:00 2,4 1,5 2 1 NNO 1021,4 10
15.01.2018 00:00:00 3,3 2,1 0 0 N 1021,4 10
14.01.2018 23:00:00 4,2 2,7 4 2 - 1020,9 10
14.01.2018 22:00:00 5,7 3,4 0 0 N 1020,4 10
14.01.2018 21:00:00 5,8 3,6 4 2 ONO 1020,1 10
14.01.2018 20:00:00 6,4 3,9 5 3 NO 1019,5 10
14.01.2018 19:00:00 8,8 4,0 0 0 N 1018,8 10
14.01.2018 18:00:00 11,2 3,9 4 2 - 1018,0 10
14.01.2018 17:00:00 12,9 4,6 9 5 NNW 1017,4 10
14.01.2018 16:00:00 13,2 4,9 16 9 NNW 1017,0 10
14.01.2018 15:00:00 14,3 5,8 15 8 N 1016,6 10
14.01.2018 14:00:00 14,9 4,6 11 6 NW 1016,5 10
14.01.2018 13:00:00 13,6 6,5 16 9 NW 1016,8 10
14.01.2018 12:00:00 13,2 6,3 13 7 NNW 1017,6 10
14.01.2018 11:00:00 13,7 6,1 11 6 NW 1017,6 10
14.01.2018 10:00:00 12,7 6,3 11 6 NW 1016,9 10
14.01.2018 09:00:00 10,9 5,8 8 4 WNW 1016,6 10
14.01.2018 08:00:00 11,3 6,4 16 9 W 1015,6 10
14.01.2018 07:00:00 12,2 5,8 24 13 W 1015,4 10
14.01.2018 06:00:00 12,8 6,2 26 14 W 1015,2 10
14.01.2018 05:00:00 13,4 8,0 15 8 ZZW 1015,3 10
14.01.2018 04:00:00 13,0 7,0 15 8 ZW 1016,0 10
14.01.2018 03:00:00 12,6 6,6 16 9 ZW 1016,4 10
14.01.2018 02:00:00 12,3 6,2 5 3 Z 1016,8 10
14.01.2018 01:00:00 9,7 6,4 4 2 OZO 1017,5 10
14.01.2018 00:00:00 9,0 6,1 4 2 - 1018,4 10
13.01.2018 23:00:00 8,5 5,8 2 1 - 1018,7 10
13.01.2018 22:00:00 8,7 5,8 4 2 O 1018,7 10
13.01.2018 21:00:00 10,7 6,3 5 3 ZO 1018,8 10
13.01.2018 20:00:00 11,4 6,5 8 4 ZZO 1019,2 10
13.01.2018 19:00:00 11,8 6,2 4 2 OZO 1019,1 10
13.01.2018 18:00:00 12,6 6,0 2 1 ZZO 1018,8 10
13.01.2018 17:00:00 13,3 6,0 8 4 Z 1019,1 10
13.01.2018 16:00:00 13,4 6,6 9 5 Z 1019,6 10
13.01.2018 15:00:00 13,7 6,3 11 6 Z 1019,9 10
13.01.2018 14:00:00 13,9 5,7 9 5 Z 1020,4 10
13.01.2018 13:00:00 14,8 5,0 9 5 Z 1021,2 10
13.01.2018 12:00:00 14,2 4,3 4 2 - 1022,3 10
13.01.2018 11:00:00 11,8 5,6 0 0 N 1023,0 10
13.01.2018 10:00:00 6,8 3,9 2 1 NNO 1022,8 10
13.01.2018 09:00:00 2,0 1,0 5 3 NO 1022,6 10
13.01.2018 08:00:00 0,9 0,0 0 0 N 1022,6 10
13.01.2018 07:00:00 1,8 0,8 4 2 - 1022,2 10
13.01.2018 06:00:00 1,8 1,2 4 2 - 1022,3 10
13.01.2018 05:00:00 1,6 0,7 4 2 O 1022,5 10
13.01.2018 04:00:00 2,7 1,7 0 0 N 1023,0 10
13.01.2018 03:00:00 3,7 3,0 2 1 O 1023,5 10
13.01.2018 02:00:00 3,1 2,2 8 4 ONO 1023,6 10
13.01.2018 01:00:00 3,4 2,3 5 3 ONO 1023,7 10
13.01.2018 00:00:00 4,1 2,9 5 3 ONO 1024,1 10
12.01.2018 23:00:00 5,6 4,0 0 0 N 1024,1 10
12.01.2018 22:00:00 6,8 4,8 2 1 - 1023,9 10
12.01.2018 21:00:00 7,9 5,1 0 0 N 1023,6 10
12.01.2018 20:00:00 8,8 5,4 0 0 N 1023,2 10
12.01.2018 19:00:00 10,7 5,7 4 2 - 1022,8 10
12.01.2018 18:00:00 11,4 5,3 11 6 NNW 1022,4 10
12.01.2018 17:00:00 12,5 5,6 21 11 NW 1022,4 10
12.01.2018 16:00:00 13,3 5,2 26 14 NNW 1021,8 10
12.01.2018 15:00:00 14,3 4,6 16 9 WNW 1021,4 10
12.01.2018 14:00:00 14,4 6,8 18 10 WZW 1021,5 10
12.01.2018 13:00:00 14,9 4,8 11 6 WZW 1022,4 10
12.01.2018 12:00:00 14,3 5,4 5 3 WNW 1022,5 10
12.01.2018 11:00:00 13,5 6,7 11 6 WNW 1023,0 10
12.01.2018 10:00:00 7,8 5,8 0 0 N 1022,7 10
12.01.2018 09:00:00 3,8 2,6 2 1 NO 1022,4 10
12.01.2018 08:00:00 2,7 1,7 2 1 ONO 1021,7 10
12.01.2018 07:00:00 3,7 2,7 0 0 N 1021,1 10
12.01.2018 06:00:00 6,0 3,9 2 1 - 1020,2 10
12.01.2018 05:00:00 6,6 4,0 0 0 N 1020,2 10
12.01.2018 04:00:00 8,2 4,9 4 2 - 1019,9 10
12.01.2018 03:00:00 10,1 5,9 4 2 WNW 1019,8 10
12.01.2018 02:00:00 10,3 5,7 15 8 NW 1019,3 10
12.01.2018 01:00:00 10,4 5,4 13 7 WNW 1019,1 10
12.01.2018 00:00:00 10,3 4,6 15 8 WNW 1019,1 10
11.01.2018 23:00:00 10,0 4,1 11 6 WNW 1018,7 10
11.01.2018 22:00:00 8,2 5,0 2 1 Z 1018,2 10
11.01.2018 21:00:00 8,9 5,7 4 2 ONO 1018,0 10
11.01.2018 20:00:00 10,3 5,5 8 4 NW 1017,5 10
11.01.2018 19:00:00 11,6 3,9 11 6 NW 1017,0 10
11.01.2018 18:00:00 11,6 3,1 21 11 NW 1016,6 10
11.01.2018 17:00:00 12,4 2,3 29 16 NW 1016,0 10
11.01.2018 16:00:00 13,1 2,3 26 14 NNW 1015,7 10
11.01.2018 15:00:00 12,3 3,0 26 14 NNW 1015,5 10
11.01.2018 14:00:00 12,3 2,7 24 13 NNW 1015,5 10
11.01.2018 13:00:00 13,6 3,2 28 15 NW 1015,8 30
11.01.2018 12:00:00 13,5 2,4 35 19 NW 1016,4 10
11.01.2018 11:00:00 13,6 2,8 34 18 NW 1016,8 10
11.01.2018 10:00:00 12,4 2,3 24 13 NW 1016,3 10
11.01.2018 09:00:00 11,6 2,5 18 10 NW 1015,8 10
11.01.2018 08:00:00 11,5 0,1 34 18 NNW 1015,7 10
11.01.2018 07:00:00 11,6 1,3 35 19 NNW 1015,2 10
11.01.2018 06:00:00 11,9 1,4 35 19 NW 1014,4 10
11.01.2018 05:00:00 12,3 3,8 34 18 NW 1014,1 10
11.01.2018 04:00:00 12,6 5,3 24 13 NW 1013,7 10
11.01.2018 03:00:00 13,5 7,0 21 11 W 1014,0 10
11.01.2018 02:00:00 13,5 7,5 21 11 W 1014,3 10
11.01.2018 01:00:00 7,0 6,3 2 1 - 1015,0 10
11.01.2018 00:00:00 7,6 6,7 0 0 N 1015,6 10
10.01.2018 23:00:00 7,3 6,4 2 1 NO 1015,9 10
10.01.2018 22:00:00 8,1 7,0 2 1 Z 1016,1 10
10.01.2018 21:00:00 7,9 6,7 2 1 - 1016,1 10
10.01.2018 20:00:00 11,1 8,1 2 1 W 1016,4 10
10.01.2018 19:00:00 10,8 7,3 9 5 WNW 1016,2 10
10.01.2018 18:00:00 12,7 8,4 11 6 W 1015,6 10
10.01.2018 17:00:00 14,6 8,8 16 9 W 1015,3 10
10.01.2018 16:00:00 15,2 8,5 18 10 W 1014,8 10
10.01.2018 15:00:00 15,2 8,3 26 14 WZW 1014,8 10
10.01.2018 14:00:00 14,9 9,3 21 11 WZW 1014,9 10
10.01.2018 13:00:00 13,8 10,8 24 13 W 1015,9 10
10.01.2018 12:00:00 14,1 9,9 18 10 W 1016,9 10
10.01.2018 11:00:00 13,0 8,9 11 6 W 1017,7 10
10.01.2018 10:00:00 13,0 8,7 18 10 W 1017,4 10

tt = temperatuur
td = dauwpunt
ff = windsnelheid
dd = windrichting
ppp = luchtdruk
vv = zicht

Weerstations in de omgeving